FW6253 Weather Reports


time (UTC)temp
F
wind
direction
speed
knots
gust
knots
rain 1hr
in
rain 24hr
in
rain mn
in
humidity
%
barometer
mb
20260903035054 87 144 2.6 10.4 0.00 0.00 0.00 67 1012.1
20260903034604 87 170 3.5 10.4 0.00 0.00 0.00 66 1012.0
20260903034053 87 197 3.5 13.0 0.00 0.00 0.00 66 1012.0
20260903033553 88 165 3.5 13.0 0.00 0.00 0.00 66 1012.0
20260903033105 88 128 3.5 7.8 0.00 0.00 0.00 65 1012.0
20260903032553 88 161 1.7 11.3 0.00 0.00 0.00 65 1011.9
20260903032053 89 134 4.3 11.3 0.00 0.00 0.00 64 1011.8
20260903031558 89 137 3.5 8.7 0.00 0.00 0.00 63 1011.7
20260903031059 89 167 2.6 9.6 0.00 0.00 0.00 62 1011.6
20260903030552 89 200 3.5 9.6 0.00 0.00 0.00 61 1011.6
20260903030128 89 132 2.6 9.6 0.00 0.00 0.00 59 1011.4
20260903025555 89 153 1.7 8.7 0.00 0.00 0.00 57 1011.4
20260903025053 89 221 2.6 12.2 0.00 0.00 0.00 55 1011.3
20260903024556 89 209 4.3 12.2 0.00 0.00 0.00 54 1011.2
20260903024052 89 0 0.0 1.7 0.00 0.00 0.00 50 1011.0
20260903023557 90 0 0.0 1.7 0.00 0.00 0.00 50 1010.9
20260903023110 90 129 0.0 1.7 0.00 0.00 0.00 50 1010.9
20260903022554 90 0 0.0 1.7 0.00 0.00 0.00 50 1010.8
20260903022054 90 129 0.0 0.9 0.00 0.00 0.00 49 1010.7
20260903021602 91 0 0.0 0.9 0.00 0.00 0.00 49 1010.7
20260903021053 91 0 0.0 1.7 0.00 0.00 0.00 48 1010.4
20260903020558 91 129 0.0 1.7 0.00 0.00 0.00 48 1010.4
20260903020106 91 129 0.0 3.5 0.00 0.00 0.00 48 1010.5
20260903015554 92 0 0.0 3.5 0.00 0.00 0.00 48 1010.4
20260903015052 92 133 0.0 1.7 0.00 0.00 0.00 48 1010.3
20260903014618 92 0 0.0 1.7 0.00 0.00 0.00 48 1010.2
20260903014056 93 133 0.0 1.7 0.00 0.00 0.00 47 1010.2
20260903013553 93 0 0.0 1.7 0.00 0.00 0.00 47 1010.1
20260903013102 93 0 0.0 0.9 0.00 0.00 0.00 47 1010.2
20260902224053 101 128 0.9 5.2 0.00 0.00 0.00 36 1010.3
20260902223552 101 127 1.7 5.2 0.00 0.00 0.00 37 1010.4
20260902223100 101 161 2.6 5.2 0.00 0.00 0.00 36 1010.4
20260902222553 101 181 0.0 6.1 0.00 0.00 0.00 35 1010.4
20260902222054 101 182 2.6 6.1 0.00 0.00 0.00 36 1010.4
20260902221613 101 226 1.7 5.2 0.00 0.00 0.00 35 1010.4
20260902221052 101 174 2.6 7.0 0.00 0.00 0.00 36 1010.5
20260902220553 101 178 1.7 7.0 0.00 0.00 0.00 36 1010.6
20260902220108 101 231 1.7 6.1 0.00 0.00 0.00 37 1010.6
20260902215553 102 252 2.6 6.1 0.00 0.00 0.00 36 1010.6
20260902215055 102 273 2.6 6.1 0.00 0.00 0.00 37 1010.7
20260902214601 102 201 1.7 6.1 0.00 0.00 0.00 37 1010.7
20260902214052 102 199 1.7 6.1 0.00 0.00 0.00 39 1010.7
20260902213549 102 130 0.9 5.2 0.00 0.00 0.00 39 1010.7
20260902213059 101 231 1.7 7.0 0.00 0.00 0.00 38 1010.8
20260902212554 101 202 1.7 7.0 0.00 0.00 0.00 39 1010.8
20260902212053 101 202 3.5 7.0 0.00 0.00 0.00 39 1010.8
20260902211558 101 188 1.7 7.0 0.00 0.00 0.00 38 1010.8
20260902211055 101 188 0.9 7.0 0.00 0.00 0.00 40 1010.8
20260902210552 100 223 2.6 7.0 0.00 0.00 0.00 39 1011.0
20260902205550 101 229 3.5 7.8 0.00 0.00 0.00 40 1011.1
20260902205049 101 120 2.6 7.8 0.00 0.00 0.00 41 1011.4
20260902204616 101 164 4.3 7.8 0.00 0.00 0.00 40 1011.3
20260902204050 101 119 1.7 6.1 0.00 0.00 0.00 41 1011.4
20260902203552 100 157 1.7 6.1 0.00 0.00 0.00 42 1011.5
20260902203057 100 187 1.7 7.8 0.00 0.00 0.00 41 1011.6
20260902202557 100 0 2.6 7.8 0.00 0.00 0.00 42 1011.6
20260902202055 100 223 1.7 8.7 0.00 0.00 0.00 41 1011.8
20260902201557 100 219 4.3 8.7 0.00 0.00 0.00 41 1011.9
20260902201052 101 61 0.9 7.8 0.00 0.00 0.00 41 1011.9
20260902200549 100 182 2.6 7.8 0.00 0.00 0.00 40 1012.1
20260902200100 100 128 1.7 6.1 0.00 0.00 0.00 41 1012.3
20260902195553 99 159 1.7 8.7 0.00 0.00 0.00 43 1012.4
20260902195049 99 134 2.6 8.7 0.00 0.00 0.00 43 1012.4
20260902194622 99 279 2.6 6.1 0.00 0.00 0.00 42 1012.5
20260902194055 99 200 2.6 7.0 0.00 0.00 0.00 43 1012.5
20260902193549 98 0 1.7 7.0 0.00 0.00 0.00 43 1012.7
20260902193105 98 265 2.6 7.0 0.00 0.00 0.00 43 1012.7
20260902192549 98 75 0.9 7.0 0.00 0.00 0.00 45 1012.7
20260902192049 97 138 1.7 7.0 0.00 0.00 0.00 47 1012.8
20260902191608 97 154 1.7 5.2 0.00 0.00 0.00 47 1013.0
20260902191049 97 0 0.9 7.0 0.00 0.00 0.00 47 1013.0
20260902190556 97 0 2.6 7.8 0.00 0.00 0.00 46 1013.2
20260902185555 97 240 2.6 8.7 0.00 0.00 0.00 45 1013.3
20260902185055 97 298 3.5 8.7 0.00 0.00 0.00 46 1013.3
20260902184658 97 227 1.7 7.8 0.00 0.00 0.00 46 1013.4
20260902184054 97 115 2.6 7.8 0.00 0.00 0.00 46 1013.5
20260902183555 97 173 3.5 8.7 0.00 0.00 0.00 49 1013.6
20260902183139 96 0 3.5 8.7 0.00 0.00 0.00 50 1013.7
20260902182556 96 316 1.7 7.0 0.00 0.00 0.00 49 1013.8
20260902182054 95 200 2.6 6.1 0.00 0.00 0.00 49 1013.8
20260902181611 95 209 2.6 7.0 0.00 0.00 0.00 50 1013.9
20260902181055 94 208 2.6 7.0 0.00 0.00 0.00 49 1014.0
20260902180554 94 238 3.5 7.0 0.00 0.00 0.00 52 1014.1
20260902180106 94 239 1.7 9.6 0.00 0.00 0.00 53 1014.2
20260902175555 94 244 4.3 9.6 0.00 0.00 0.00 53 1014.2
20260902175057 94 223 1.7 8.7 0.00 0.00 0.00 52 1014.4
20260902174558 94 231 3.5 8.7 0.00 0.00 0.00 53 1014.4
20260902174055 94 184 1.7 6.1 0.00 0.00 0.00 53 1014.5
20260902173554 93 207 1.7 7.0 0.00 0.00 0.00 53 1014.5
20260902173103 93 163 2.6 8.7 0.00 0.00 0.00 53 1014.6
20260902172554 93 178 2.6 8.7 0.00 0.00 0.00 56 1014.7
20260902172058 93 280 2.6 7.0 0.00 0.00 0.00 56 1014.7
20260902171626 93 194 2.6 5.2 0.00 0.00 0.00 58 1014.8
20260902171055 93 0 1.7 5.2 0.00 0.00 0.00 61 1014.9
20260902170556 92 194 0.9 8.7 0.00 0.00 0.00 62 1014.9
20260902170103 91 113 1.7 8.7 0.00 0.00 0.00 62 1015.0
20260902165554 91 202 3.5 8.7 0.00 0.00 0.00 62 1015.1
20260902165054 91 193 1.7 7.8 0.00 0.00 0.00 62 1015.1
20260902164622 90 225 3.5 7.0 0.00 0.00 0.00 63 1015.1
20260902164054 90 215 0.9 7.0 0.00 0.00 0.00 64 1015.1
20260902163554 90 174 1.7 7.0 0.00 0.00 0.00 65 1015.1
20260902163101 89 204 2.6 7.0 0.00 0.00 0.00 65 1015.1
20260902162554 89 170 2.6 7.8 0.00 0.00 0.00 65 1015.1
20260902162054 88 190 3.5 7.8 0.00 0.00 0.00 67 1015.2
20260902161603 88 155 2.6 8.7 0.00 0.00 0.00 68 1015.2
20260902161055 87 259 3.5 9.6 0.00 0.00 0.00 68 1015.2
20260902160554 87 234 5.2 9.6 0.00 0.00 0.00 69 1015.2
20260902160105 87 200 2.6 9.6 0.00 0.00 0.00 70 1015.2
20260902155555 86 234 3.5 7.8 0.00 0.00 0.00 70 1015.2
20260902155053 86 277 3.5 9.6 0.00 0.00 0.00 72 1015.3
20260902154606 86 263 3.5 9.6 0.00 0.00 0.00 72 1015.3
20260902154058 85 229 3.5 8.7 0.00 0.00 0.00 74 1015.3
20260902153554 85 249 3.5 7.8 0.00 0.00 0.00 73 1015.2
20260902153102 85 219 4.3 7.8 0.00 0.00 0.00 75 1015.2
20260902152555 84 196 2.6 8.7 0.00 0.00 0.00 77 1015.2
20260902152054 84 229 2.6 8.7 0.00 0.00 0.00 78 1015.2
20260902151603 84 251 4.3 8.7 0.00 0.00 0.00 78 1015.2
20260902151054 83 228 3.5 7.0 0.00 0.00 0.00 79 1015.3
20260902150554 83 243 2.6 7.8 0.00 0.00 0.00 80 1015.3
20260902150105 83 314 2.6 7.8 0.00 0.00 0.00 81 1015.4
20260902145554 82 240 3.5 8.7 0.00 0.00 0.00 82 1015.4
20260902145054 82 234 4.3 9.6 0.00 0.00 0.00 82 1015.4
20260902144609 81 211 5.2 9.6 0.00 0.00 0.00 83 1015.4
20260902144054 81 198 2.6 7.8 0.00 0.00 0.00 85 1015.4
20260902143555 81 221 3.5 8.7 0.00 0.00 0.00 86 1015.3
20260902143104 80 225 2.6 10.4 0.00 0.00 0.00 87 1015.4
20260902142554 80 203 3.5 10.4 0.00 0.00 0.00 87 1015.4
20260902142054 80 204 3.5 7.0 0.00 0.00 0.00 88 1015.3
20260902141558 80 261 1.7 7.8 0.00 0.00 0.00 89 1015.3
20260902141054 79 220 3.5 7.8 0.00 0.00 0.00 89 1015.4
20260902140621 79 240 4.3 7.8 0.00 0.00 0.00 90 1015.4
20260902135549 78 236 2.6 6.1 0.00 0.00 0.00 90 1015.3
20260902135052 78 202 2.6 6.1 0.00 0.00 0.00 91 1015.3
20260902134606 78 248 1.7 6.1 0.00 0.00 0.00 91 1015.2
20260902134049 78 240 2.6 6.1 0.00 0.00 0.00 91 1015.2
20260902133749 78 236 2.6 6.1 0.00 0.00 0.00 91 1015.1
20260902133103 77 227 2.6 6.1 0.00 0.00 0.00 91 1015.1
20260902132646 77 215 2.6 5.2 0.00 0.00 0.00 91 1015.2
20260902132054 77 202 1.7 5.2 0.00 0.00 0.00 91 1015.2
20260902131613 77 227 2.6 5.2 0.00 0.00 0.00 91 1015.1
20260902131054 77 219 1.7 5.2 0.00 0.00 0.00 91 1015.1
20260902130554 77 209 2.6 5.2 0.00 0.00 0.00 91 1015.0
20260902130112 76 214 1.7 5.2 0.00 0.00 0.00 91 1014.9
20260902125554 76 213 1.7 3.5 0.00 0.00 0.00 91 1014.9
20260902125057 76 214 1.7 3.5 0.00 0.00 0.00 91 1014.9
20260902124600 76 215 0.0 1.7 0.00 0.00 0.00 91 1014.9
20260902124052 76 0 0.0 2.6 0.00 0.00 0.00 91 1014.7
20260902123557 76 0 0.9 2.6 0.00 0.00 0.00 91 1014.6
20260902123106 76 215 0.9 2.6 0.00 0.00 0.00 91 1014.6
20260902122553 76 215 0.9 2.6 0.00 0.00 0.00 91 1014.6
20260902122052 76 214 0.9 3.5 0.00 0.00 0.00 90 1014.5
20260902121604 76 214 0.9 3.5 0.00 0.00 0.00 90 1014.4
20260902121054 76 214 1.7 3.5 0.00 0.00 0.00 90 1014.3
20260902120554 76 215 1.7 3.5 0.00 0.00 0.00 90 1014.4
20260902115555 76 217 0.0 1.7 0.00 0.00 0.00 89 1014.4
20260902115053 76 0 0.0 0.0 0.00 0.00 0.00 89 1014.3
20260902114620 76 0 0.0 0.0 0.00 0.00 0.00 89 1014.2
20260902114053 76 0 0.0 1.7 0.00 0.00 0.00 89 1014.3
20260902113552 76 0 0.0 2.6 0.00 0.00 0.00 89 1014.3
20260902113100 76 217 0.0 2.6 0.00 0.00 0.00 89 1014.3
20260902112552 76 217 0.9 2.6 0.00 0.00 0.00 88 1014.2
20260902112053 76 217 0.9 2.6 0.00 0.00 0.00 88 1014.1
20260902111603 76 217 0.9 3.5 0.00 0.00 0.00 88 1014.1
20260902111053 76 217 1.7 4.3 0.00 0.00 0.00 88 1014.1
20260902110552 76 217 1.7 4.3 0.00 0.00 0.00 88 1014.2
20260902110108 76 217 1.7 5.2 0.00 0.00 0.00 87 1014.1
20260902105552 76 216 1.7 5.2 0.00 0.00 0.00 87 1014.1
20260902105052 76 215 0.9 4.3 0.00 0.00 0.00 87 1014.0
20260902104601 76 214 2.6 4.3 0.00 0.00 0.00 87 1014.0
20260902104052 76 208 2.6 4.3 0.00 0.00 0.00 86 1014.1
20260902103552 76 205 1.7 3.5 0.00 0.00 0.00 85 1014.1
20260902103108 76 206 0.0 2.6 0.00 0.00 0.00 85 1014.1
20260902102552 76 0 0.0 2.6 0.00 0.00 0.00 85 1014.3
20260902102052 76 0 0.0 2.6 0.00 0.00 0.00 84 1014.2
20260902101557 76 0 0.0 2.6 0.00 0.00 0.00 84 1014.1
20260902101052 76 206 0.9 4.3 0.00 0.00 0.00 84 1013.9
20260902100553 76 206 0.9 4.3 0.00 0.00 0.00 84 1014.1
20260902100101 77 0 0.9 4.3 0.00 0.00 0.00 84 1014.1
20260902095552 77 209 0.9 5.2 0.00 0.00 0.00 84 1014.0
20260902095052 77 207 2.6 5.2 0.00 0.00 0.00 84 1013.9
20260902094604 77 210 2.6 5.2 0.00 0.00 0.00 83 1014.0
20260902094052 77 207 1.7 5.2 0.00 0.00 0.00 83 1014.2
20260902093552 77 211 2.6 5.2 0.00 0.00 0.00 83 1014.3
20260902093057 77 210 2.6 5.2 0.00 0.00 0.00 83 1014.3
20260902092553 77 205 2.6 5.2 0.00 0.00 0.00 83 1014.3
20260902092053 77 203 2.6 5.2 0.00 0.00 0.00 82 1014.3
20260902091603 77 205 2.6 4.3 0.00 0.00 0.00 82 1014.2
20260902091055 77 198 1.7 3.5 0.00 0.00 0.00 82 1014.4
20260902090553 77 198 0.9 3.5 0.00 0.00 0.00 81 1014.3
20260902090059 77 198 1.7 4.3 0.00 0.00 0.00 81 1014.3
20260902085552 78 196 1.7 4.3 0.00 0.00 0.00 81 1014.4
20260902085119 78 196 0.9 2.6 0.00 0.00 0.00 81 1014.4
20260902084607 78 196 0.9 3.5 0.00 0.00 0.00 80 1014.5
20260902084052 78 0 0.9 3.5 0.00 0.00 0.00 80 1014.4
20260902083553 78 196 0.9 2.6 0.00 0.00 0.00 80 1014.4
20260902083059 78 0 0.9 2.6 0.00 0.00 0.00 80 1014.4
20260902082552 78 0 0.0 3.5 0.00 0.00 0.00 79 1014.4
20260902082052 78 0 0.0 3.5 0.00 0.00 0.00 79 1014.5
20260902081557 78 195 0.9 3.5 0.00 0.00 0.00 79 1014.5
20260902081054 78 195 1.7 3.5 0.00 0.00 0.00 79 1014.5
20260902080553 78 190 1.7 3.5 0.00 0.00 0.00 79 1014.5
20260902080103 78 190 1.7 3.5 0.00 0.00 0.00 78 1014.6
20260902075552 78 189 1.7 3.5 0.00 0.00 0.00 78 1014.6
20260902075055 79 187 1.7 4.3 0.00 0.00 0.00 78 1014.6
20260902074559 79 186 1.7 4.3 0.00 0.00 0.00 78 1014.6
20260902074053 79 186 1.7 5.2 0.00 0.00 0.00 78 1014.6
20260902073553 79 184 1.7 5.2 0.00 0.00 0.00 77 1014.6
20260902073057 79 181 1.7 4.3 0.00 0.00 0.00 77 1014.6
20260902072553 79 131 0.0 2.6 0.00 0.00 0.00 77 1014.5
20260902072055 79 128 0.0 2.6 0.00 0.00 0.00 77 1014.6
20260902071605 79 126 0.0 2.6 0.00 0.00 0.00 76 1014.6
20260902071055 79 126 0.0 2.6 0.00 0.00 0.00 76 1014.7
20260902070552 80 0 0.0 2.6 0.00 0.00 0.00 75 1014.6
20260902070100 80 0 0.0 2.6 0.00 0.00 0.00 75 1014.6
20260902065552 80 0 0.0 0.0 0.00 0.00 0.00 74 1014.5
20260902065053 80 0 0.0 0.0 0.00 0.00 0.00 74 1014.5
20260902064601 80 0 0.0 0.0 0.00 0.00 0.00 74 1014.6
20260902064055 80 0 0.0 0.0 0.00 0.00 0.00 73 1014.6
20260902063555 81 0 0.0 3.5 0.00 0.00 0.00 73 1014.6
20260902063109 81 0 0.0 3.5 0.00 0.00 0.00 73 1014.6
20260902062555 81 0 0.9 3.5 0.00 0.00 0.00 73 1014.6
20260902062054 81 0 0.0 3.5 0.00 0.00 0.00 73 1014.5
20260902061601 81 122 0.0 3.5 0.00 0.00 0.00 72 1014.5
20260902061053 81 0 0.0 1.7 0.00 0.00 0.00 72 1014.7
20260902060554 81 0 0.0 1.7 0.00 0.00 0.00 72 1014.6
20260902060128 82 0 0.0 4.3 0.00 0.00 0.00 71 1014.5
20260902055553 82 0 0.0 5.2 0.00 0.00 0.00 71 1014.6
20260902055056 82 130 0.9 5.2 0.00 0.00 0.00 71 1014.4
20260902054558 82 118 0.9 4.3 0.00 0.00 0.00 70 1014.3
20260902054051 82 138 0.0 2.6 0.00 0.00 0.00 70 1014.3
20260902053555 82 161 0.0 2.6 0.00 0.00 0.00 70 1014.3
20260902053102 82 178 0.0 2.6 0.00 0.00 0.00 70 1014.2
20260902052553 82 0 0.0 5.2 0.00 0.00 0.00 70 1014.2
20260902052053 82 189 0.9 5.2 0.00 0.00 0.00 70 1014.2
20260902051558 82 190 0.9 5.2 0.00 0.00 0.00 70 1014.2
20260902051053 83 200 2.6 5.2 0.00 0.00 0.00 69 1014.2
20260902050552 83 192 2.6 5.2 0.00 0.00 0.00 69 1014.2
20260902050105 83 0 0.9 4.3 0.00 0.00 0.00 69 1014.2
20260902045554 83 190 0.9 3.5 0.00 0.00 0.00 69 1014.2
20260902045054 83 0 0.0 3.5 0.00 0.00 0.00 69 1014.2
20260902044600 83 195 0.9 3.5 0.00 0.00 0.00 69 1014.2
20260902044053 83 200 0.9 6.1 0.00 0.00 0.00 69 1014.2
20260902043554 83 0 1.7 6.1 0.00 0.00 0.00 69 1014.1
20260902043107 84 196 0.9 5.2 0.00 0.00 0.00 68 1014.1
20260902042553 84 201 1.7 5.2 0.00 0.00 0.00 68 1014.0
20260902042054 84 196 0.9 4.3 0.00 0.00 0.00 68 1014.0
20260902041611 84 147 0.9 6.1 0.00 0.00 0.00 68 1014.0
20260902041052 84 0 1.7 6.1 0.00 0.00 0.00 67 1014.0
20260902040553 84 167 1.7 8.7 0.00 0.00 0.00 67 1014.0
20260902040105 85 136 0.9 8.7 0.00 0.00 0.00 67 1013.9
20260902035555 85 191 2.6 8.7 0.00 0.00 0.00 66 1013.9